Showing default

VENUS, 42901

Orbit data source: Space-Track

VENUS, 42901 is an Israeli payload satellite in SSO that was launched on Wed, 02 Aug 2017 UTC via a VEGA launch vehicle from the French Guiana (FRGUI). Payloads include a variety of satellites, spacecraft, and rockets equipped with specific instruments for various scientific and technological missions. These include communications satellites like Starlink; space stations such as the ISS; scientific satellites like the Hubble; Earth observation satellites from companies like Planet Labs, Umbra, and HawkEye 360; GPS; miniature CubeSats for education and research; and military/defense satellites.

Loading next visibility...
VENUS details
Identifier
42901, 2017-044B
Orbit
SSO
Last TLE update9 hours ago
Origin
Flag of ILISA/CNES (IL / ISRA)
ManufacturerIAI
MissionOperational Civil Imaging
Bus & MotorVENMS, HET-300
Mass264 kg wet, ~250 kg dry
Launch date (UTC)
2017-08-02 (7 years ago)
Launch vehicle
VEGA
Launch site
French Guiana (FRGUI)
Object type
Payload
Rocket body
Debris
Shape & HBRBox + 2 Pan, 4.5 m
Radar Cross Section3.833 m², Large (>1 m²)

Expand to show TLE details & history

TLE from 9 hours ago
0 VENUS
1 42901U 17044B   24361.25833533  .00010221  00000-0  70572-3 0  9990
2 42901  97.3496  50.9889 0005679  69.8340 290.3498 15.05934891399744
Epoch: 2024-12-26T06:12Z
Definitive object data (Epoch: 2024-12-26T06:12:00.172Z)
Latitude-0.00003°
Longitude-137.25212°
Altitude550.344 km
Speed7.587 km/s
True Right ascension03h 23m 57s
True Declination0° 00' 00"
Sunlit
Object was in full shadow at TLE epoch
Visualization TLE readout
Latitude12.38496°
Longitude44.70813°
Altitude551.53 km
Speed7.587 km/s
Apparent Right ascension17h 57m 40s
Apparent Declination-44° 23' 10"
Sunlit
Object is in daylight
Visualization observer readout
Local Sidereal Time14:16:46
Azimuth143.663° SSE
Elevation-7.829°
Doppler factor1
Orbital elements
Apogee altitude549.552 km
Perigee altitude541.688 km
Semi-major axis6,923.757 km
Eccentricity0.0005679
Inclination97.3496°
RAAN50.9889°
Arg. of periapsis69.834°
True anomaly290.28877°
Mean anomaly290.3498°
Eccentric anomaly290.31929°
Mean motion3.7673 °/min
BSTAR0.00070572
Orbital period95.56 mins
Loading maneuver chart data...
Loading historical data...
Loading historical data...
Loading historical data...
Loading historical data...
Loading historical data...
Loading historical data...
Loading historical data...

VENUS Visibility forecast

Observer location: undefined°, undefined

Span
Click to sort rows by Start time (UTC) header in descending order
Start Az.
Max El. time (UTC)
Max El. Az.
Max El.
End time (UTC)
End Az.
7 mins2024-12-26 16:19:51.394Z15.21° NNE2024-12-26 16:22:51.394Z46.604° ENE43.251°2024-12-26 16:26:51.394Z188.418° SSW
5 mins2024-12-27 03:04:51.394Z125.782° SE2024-12-27 03:06:51.394Z76.019° E30.024°2024-12-27 03:09:51.394Z10.813° NNE
|